Flag for Canada Weather past 2 weeks in Yellowknife, Northwest Territories, Canada

30 °F

Light snow. Mostly cloudy.

Feels Like: 20 °F
Forecast: 27 / 35 °F
Wind: 14 mph from East

Location: Yellowknife

Current Time: Oct 10, 2015 at 1:30:30 AM

Latest Report: Oct 10, 2015 at 12:00 AM

Visibility: 3 mi

Pressure: 29.42 "Hg

Humidity: 93%

Dew point: 28 °F

Location of YellowknifeLocation

Historic Weather in Yellowknife — Graph


Yellowknife temperature yesterday

Maximum temperature yesterday: 34 °F (at 2:00 PM)
Minimum temperature yesterday: 25 °F (at 4:00 AM)
Average temperature yesterday: 30 °F

Past Weeks' High & Low Weather Summary

High63 °F (Sep 30, 1:00 PM)100% (Sep 25, 8:52 AM)30.53 "Hg (Sep 25, 8:52 AM)
Low25 °F (Sep 28, 9:00 AM)40% (Sep 26, 1:00 PM)29.37 "Hg (Sep 26, 4:00 PM)
Average39 °F75%29.91 "Hg
* Reported Midnight between Sep 24 and Sep 25 — Midnight between Oct 9 and Oct 10, Yellowknife, Weather by CustomWeather, © 2015

Note: Actual official high and low records may vary slightly from our data, if they occured in-between our weather recording intervals... More about our weather records


Yellowknife weather history for previous 24 hours

Time TempWeatherWind HumidityBarometerVisibility
12:00 AM
Sat, Oct 10
30 °FLight snow. Mostly cloudy.14 mph93%29.42 "Hg3 mi
11:00 PM
Fri, Oct 9
30 °FLight snow. Overcast.13 mph93%29.47 "Hg3 mi
10:00 PM32 °FLight snow. Overcast.10 mph80%29.50 "Hg10 mi
9:04 PM32 °FLight snow. Mostly cloudy.10 mph69%29.54 "Hg15 mi
8:00 PM32 °FMostly cloudy.13 mph69%29.57 "Hg15 mi
7:00 PM32 °FMostly cloudy.14 mph69%29.62 "Hg15 mi
6:00 PM32 °FMostly cloudy.13 mph64%29.66 "Hg15 mi
5:00 PM34 °FMostly cloudy.14 mph56%29.70 "Hg15 mi
4:00 PM34 °FMostly cloudy.16 mph56%29.73 "Hg15 mi
3:00 PM34 °FPartly sunny.15 mph60%29.76 "Hg15 mi
2:00 PM34 °FPartly sunny.13 mph60%29.80 "Hg15 mi
1:00 PM32 °FPartly sunny.16 mph64%29.81 "Hg15 mi
12:00 PM32 °FPartly sunny.12 mph64%29.86 "Hg15 mi
11:00 AM30 °FPartly sunny.17 mph69%29.86 "Hg15 mi
10:00 AM27 °FPartly sunny.15 mph74%29.92 "Hg15 mi
9:00 AM27 °FPassing clouds.15 mph74%29.92 "Hg15 mi
8:00 AM27 °FPassing clouds.13 mph74%29.96 "Hg15 mi
7:00 AM27 °FPassing clouds.12 mph74%29.99 "Hg15 mi
6:00 AM27 °FPassing clouds.13 mph74%30.01 "Hg15 mi
5:00 AM27 °FPassing clouds.12 mph74%30.02 "Hg15 mi
4:00 AM25 °FPartly cloudy.13 mph80%30.04 "Hg15 mi
3:00 AM27 °FPassing clouds.12 mph74%30.07 "Hg15 mi
2:00 AM27 °FPassing clouds.13 mph69%30.10 "Hg15 mi
1:00 AM27 °FPassing clouds.12 mph69%30.12 "Hg15 mi
Weather by CustomWeather, © 2015

See weather overviewHow to use our weather pages